Location: Fours
(44.3167°N, 6.7000°E)
Time: 19:16:59
(UTC+00:00)

Cosmos 1356 - Visible Passes

Search period start: 25 May 2022 00:00
Search period end: 04 June 2022 00:00
Orbit: 421 x 422 km, 81.1° (Epoch: 24 May)

Date Brightness Start Highest point End Pass type
(mag) Time Alt. Az. Time Alt. Az. Time Alt. Az.
25 May 4.0 22:19:27 54° NNW 22:19:27 54° NNW 22:22:11 10° N visible
26 May 4.4 21:35:10 32° ENE 21:35:10 32° ENE 21:37:39 10° NNE visible
26 May 6.1 23:08:13 12° WNW 23:08:41 12° WNW 23:10:08 10° NW visible
27 May 5.6 20:50:51 13° E 20:50:51 13° E 20:52:00 10° ENE visible
27 May 4.7 22:23:53 32° W 22:24:02 32° WNW 22:27:04 10° N visible
28 May 3.1 21:39:30 77° ESE 21:39:33 77° E 21:42:52 10° NNE visible
29 May 4.6 20:55:03 24° E 20:55:14 24° E 20:57:57 10° NE visible
29 May 5.7 22:28:05 15° W 22:29:09 17° WNW 22:31:26 10° NNW visible
30 May 4.1 21:43:34 36° SW 21:44:28 48° WNW 21:47:42 10° N visible
31 May 3.5 20:58:59 34° SSE 20:59:58 48° E 21:03:11 10° NNE visible
01 Jun 5.1 20:14:19 14° ESE 20:15:38 17° E 20:17:48 10° NE visible
01 Jun 5.4 21:47:20 14° WSW 21:49:21 24° WNW 21:52:07 10° NNW visible
02 Jun 3.3 21:02:36 21° SSW 21:04:39 77° WNW 21:07:57 10° N visible
03 Jun 4.2 20:17:46 14° SSE 20:20:08 31° E 20:23:05 10° NNE visible
03 Jun 6.2 21:52:24 10° W 21:54:09 14° WNW 21:55:54 10° NW visible
